This demonstration page uses our WeatherBlox Daily Observations layout. Learn more.

Left ArrowRight Arrow

39.08367, -84.50855

Hourly Observations for November 10, 2018

Temp ( °F °C ) Dew Point ( °F °C ) Humidity (%) Winds ( mph kmh ) Pressure ( in mb ) Visibility ( mi km ) Precip ( " mm )
12:53 am 00:53 Mostly Cloudy 33 0.6 23 -5 66 66 WNW 8 13 30.23 1024 10 16 0.00 0.00
1:53 am 01:53 Mostly Cloudy 32 0 24 -4.4 73 73 W 8 13 30.24 1024 10 16 0.00 0.00
2:53 am 02:53 Cloudy 32 0 21 -6.1 64 64 W 13 20 30.25 1024 9 14 0.00 0.00
3:51 am 03:51 Cloudy with Light Snow 30 -1 23 -5 75 75 WNW 12 19 30.30 1026 7 11 0.00 0.03
3:53 am 03:53 Cloudy with Light Snow 31 -0.6 23 -5 72 72 WNW 12 19 30.27 1025 8 13 0.00 0.03
4:19 am 04:19 Cloudy 31 -0.6 22 -5.6 69 69 W 12 19 30.30 1026 10 16 0.00 0.03
4:53 am 04:53 Mostly Cloudy 30 -1.1 22 -5.6 72 72 WNW 6 9 30.30 1026 10 16 0.00 0.03
5:00 am 05:00 Cloudy 30 -1.1 22 -5.6 72 72 WNW 13 20 30.33 1027 10 16 0.00 0.00
5:07 am 05:07 Cloudy 30 -1.1 21 -6.1 69 69 NW 13 20 30.33 1027 10 16 0.00 0.00
5:24 am 05:24 Cloudy 28 -2.2 17 -8.3 63 63 NW 13 20 30.36 1028 10 16 0.00 0.00
5:53 am 05:53 Mostly Cloudy 26 -3.3 14 -10 60 60 WNW 13 20 30.36 1028 10 16 0.00 0.00
6:53 am 06:53 Clear 24 -4.4 13 -10.6 62 62 W 9 15 30.38 1029 10 16 0.00 0.00
7:53 am 07:53 Sunny 24 -4.4 11 -11.7 57 57 W 16 26 30.41 1030 10 16 0.00 0.00
8:53 am 08:53 Sunny 26 -3.3 12 -11.1 55 55 WNW 12 19 30.44 1031 10 16 0.00 0.00
9:53 am 09:53 Sunny 28 -2.2 13 -10.6 53 53 W 10 17 30.46 1032 10 16 0.00 0.00
10:53 am 10:53 Sunny 30 -1.1 15 -9.4 54 54 W 9 15 30.47 1032 10 16 0.00 0.00
11:53 am 11:53 Sunny 33 0.6 16 -8.9 49 49 WNW 6 9 30.47 1032 10 16 0.00 0.00
12:53 pm 12:53 Sunny 34 1.1 16 -8.9 48 48 W 6 9 30.45 1031 10 16 0.00 0.00
1:53 pm 13:53 Sunny 36 2.2 18 -7.8 48 48 VRB 3 6 30.43 1031 10 16 0.00 0.00
2:53 pm 14:53 Sunny 37 2.8 18 -7.8 46 46 WSW 8 13 30.43 1030 10 16 0.00 0.00
3:53 pm 15:53 Sunny 37 2.8 17 -8.3 44 44 W 3 6 30.42 1030 10 16 0.00 0.00
4:53 pm 16:53 Sunny 35 1.7 17 -8.3 48 48 N 7 11 30.40 1030 10 16 0.00 0.00
5:53 pm 17:53 Clear 33 0.6 17 -8.3 52 52 N 3 6 30.41 1030 10 16 0.00 0.00
6:53 pm 18:53 Clear 30 -1.1 20 -6.7 66 66 Calm 30.42 1030 10 16 0.00 0.00
7:53 pm 19:53 Clear 27 -2.8 21 -6.1 78 78 Calm 30.43 1030 10 16 0.00 0.00
8:53 pm 20:53 Clear 27 -2.8 22 -5.6 81 81 Calm 30.42 1030 10 16 0.00 0.00
9:53 pm 21:53 Clear 26 -3.3 23 -5 88 88 ENE 3 6 30.42 1030 10 16 0.00 0.00
10:53 pm 22:53 Clear 24 -4.4 21 -6.1 88 88 Calm 30.42 1030 10 16 0.00 0.00
11:53 pm 23:53 Clear 24 -4.4 22 -5.6 91 91 Calm 30.42 1030 9 14 0.00 0.00

Powered by AerisWeather